Location: Croisilles
(50.1998°N, 2.8793°E)
Time: 13:17:48
(UTC+00:00)

Cosmos 1703 - Pass Details

Date: 21 January 2021
Orbit: 524 x 538 km, 82.5° (Epoch: 26 February)

Event Time Altitude Azimuth Distance (km) Brightness Sun altitude
Rises 18:52:10 0° 193° (SSW) 2,654 7.0 -23.3°
Reaches altitude 10° 18:54:18 10° 195° (SSW) 1,768 6.1 -23.6°
Enters shadow 18:57:40 62° 227° (SW) 596 3.5 -24.2°
